Time,TemperatureF,DewpointF,PressureIn,WindDirection,WindDirectionDegrees,WindSpeedMPH,WindSpeedGustMPH,Humidity,HourlyPrecipIn,Conditions,Clouds,dailyrainin,SolarRadiationWatts/m^2,SoftwareType,DateUTC
2013-03-01 00:00:00,30.1,25.0,29.95,NW,326,1.5,1.5,81,0.00,OVC,,0.00,0.0,WeatherDisplay:10.37,2013-03-01 05:00:00,
2013-03-01 00:05:00,30.0,24.9,29.95,NW,320,3.4,4.6,81,0.00,OVC,,0.00,0.0,WeatherDisplay:10.37,2013-03-01 05:05:00,
2013-03-01 00:06:00,30.1,24.7,29.95,NW,319,3.0,6.0,80,0.00,OVC,,0.00,0.0,WeatherDisplay:10.37,2013-03-01 05:06:00,
2013-03-01 00:07:00,30.1,24.7,29.95,NNW,335,6.9,6.9,80,0.00,OVC,,0.00,0.0,WeatherDisplay:10.37,2013-03-01 05:07:00,
2013-03-01 00:12:00,30.1,25.0,29.95,NNW,335,2.4,3.5,81,0.00,OVC,,0.00,0.0,WeatherDisplay:10.37,2013-03-01 05:12:00,
2013-03-01 00:17:00,30.0,24.9,29.96,NW,313,3.7,4.6,81,0.00,OVC,,0.00,0.0,WeatherDisplay:10.37,2013-03-01 05:17:00,
2013-03-01 00:22:00,30.0,24.9,29.96,ENE,66,2.0,3.5,81,0.00,OVC,,0.00,0.0,WeatherDisplay:10.37,2013-03-01 05:22:00,
2013-03-01 00:27:00,30.0,24.9,29.96,WNW,299,6.0,10.4,81,0.00,OVC,,0.00,0.0,WeatherDisplay:10.37,2013-03-01 05:27:00,
2013-03-01 00:32:00,30.0,24.9,29.96,NW,304,0.5,1.2,81,0.00,OVC,,0.00,0.0,WeatherDisplay:10.37,2013-03-01 05:32:00,
2013-03-01 00:37:00,30.0,24.9,29.96,NNW,328,0.5,3.5,81,0.00,OVC,,0.00,0.0,WeatherDisplay:10.37,2013-03-01 05:37:00,
2013-03-01 00:42:00,30.0,24.9,29.96,North,7,0.8,8.1,81,0.00,OVC,,0.00,0.0,WeatherDisplay:10.37,2013-03-01 05:42:00,
2013-03-01 00:47:00,30.0,24.9,29.96,North,7,0.0,3.5,81,0.00,OVC,,0.00,0.0,WeatherDisplay:10.37,2013-03-01 05:47:00,
2013-03-01 00:52:00,30.0,24.9,29.96,NNW,328,3.9,7.5,81,0.00,OVC,,0.00,0.0,WeatherDisplay:10.37,2013-03-01 05:52:00,
2013-03-01 00:57:00,30.0,24.9,29.96,NW,306,1.1,4.6,81,0.00,OVC,,0.00,0.0,WeatherDisplay:10.37,2013-03-01 05:57:00,
2013-03-01 01:02:00,29.8,24.7,29.96,NW,312,1.9,3.0,81,0.00,-SN,,0.00,0.0,WeatherDisplay:10.37,2013-03-01 06:02:00,
2013-03-01 01:07:00,29.8,24.7,29.96,NW,319,6.6,9.2,81,0.00,-SN,,0.00,0.0,WeatherDisplay:10.37,2013-03-01 06:07:00,
2013-03-01 01:12:00,29.8,24.7,29.96,NW,305,5.4,5.4,81,0.00,-SN,,0.00,0.0,WeatherDisplay:10.37,2013-03-01 06:12:00,
2013-03-01 01:17:00,29.8,24.7,29.97,NW,312,0.6,3.5,81,0.00,-SN,,0.00,0.0,WeatherDisplay:10.37,2013-03-01 06:17:00,
2013-03-01 01:22:00,29.7,24.6,29.97,NNW,332,3.2,5.8,81,0.00,-SN,,0.00,0.0,WeatherDisplay:10.37,2013-03-01 06:22:00,
2013-03-01 01:27:00,29.7,24.6,29.97,NW,323,5.1,7.5,81,0.00,-SN,,0.00,0.0,WeatherDisplay:10.37,2013-03-01 06:27:00,
2013-03-01 01:32:00,29.5,24.4,29.97,NW,323,0.3,1.5,81,0.00,-SN,,0.00,0.0,WeatherDisplay:10.37,2013-03-01 06:32:00,
2013-03-01 01:37:00,29.5,24.4,29.97,NNW,343,0.0,3.5,81,0.00,-SN,,0.00,0.0,WeatherDisplay:10.37,2013-03-01 06:37:00,
2013-03-01 01:42:00,29.5,24.4,29.97,NW,315,4.1,9.2,81,0.00,-SN,,0.00,0.0,WeatherDisplay:10.37,2013-03-01 06:42:00,
2013-03-01 01:47:00,29.5,24.4,29.97,NW,316,1.6,4.6,81,0.00,-SN,,0.00,0.0,WeatherDisplay:10.37,2013-03-01 06:47:00,
2013-03-01 01:52:00,29.5,24.4,29.97,NW,316,0.1,3.5,81,0.00,-SN,,0.00,0.0,WeatherDisplay:10.37,2013-03-01 06:52:00,
2013-03-01 01:57:00,29.5,24.4,29.97,WNW,296,4.3,9.2,81,0.00,-SN,,0.00,0.0,WeatherDisplay:10.37,2013-03-01 06:57:00,
2013-03-01 02:02:00,29.4,24.3,29.97,NW,304,3.0,4.5,81,0.00,-SN,,0.00,0.0,WeatherDisplay:10.37,2013-03-01 07:02:00,
2013-03-01 02:07:00,29.4,24.0,29.97,NW,323,1.6,3.0,80,0.00,-SN,,0.00,0.0,WeatherDisplay:10.37,2013-03-01 07:07:00,
2013-03-01 02:12:00,29.4,24.3,29.97,NW,305,3.6,8.1,81,0.00,-SN,,0.00,0.0,WeatherDisplay:10.37,2013-03-01 07:12:00,
2013-03-01 02:17:00,29.4,24.3,29.97,NW,316,4.0,9.2,81,0.00,-SN,,0.00,0.0,WeatherDisplay:10.37,2013-03-01 07:17:00,
2013-03-01 02:22:00,29.4,24.3,29.97,NW,318,6.1,9.2,81,0.00,-SN,,0.00,0.0,WeatherDisplay:10.37,2013-03-01 07:22:00,
2013-03-01 02:27:00,29.4,24.3,29.97,NE,42,0.5,10.4,81,0.00,-SN,,0.00,0.0,WeatherDisplay:10.37,2013-03-01 07:27:00,
2013-03-01 02:32:00,29.4,24.3,29.97,NNW,347,6.2,9.2,81,0.00,-SN,,0.00,0.0,WeatherDisplay:10.37,2013-03-01 07:32:00,
2013-03-01 02:37:00,29.3,24.2,29.97,NW,326,6.7,9.0,81,0.00,-SN,,0.00,0.0,WeatherDisplay:10.37,2013-03-01 07:37:00,
2013-03-01 02:42:00,29.3,24.2,29.97,North,356,2.2,9.2,81,0.00,-SN,,0.00,0.0,WeatherDisplay:10.37,2013-03-01 07:42:00,
2013-03-01 02:47:00,29.3,24.2,29.97,NW,319,2.3,3.5,81,0.00,-SN,,0.00,0.0,WeatherDisplay:10.37,2013-03-01 07:47:00,
2013-03-01 02:52:00,29.3,24.2,29.97,NNW,330,1.6,3.5,81,0.00,-SN,,0.00,0.0,WeatherDisplay:10.37,2013-03-01 07:52:00,
2013-03-01 02:57:00,29.3,24.2,29.97,NNW,336,5.7,9.2,81,0.00,-SN,,0.00,0.0,WeatherDisplay:10.37,2013-03-01 07:57:00,
2013-03-01 03:02:00,29.3,24.2,29.97,NNW,336,2.8,4.6,81,0.00,-SN,,0.00,0.0,WeatherDisplay:10.37,2013-03-01 08:02:00,
2013-03-01 03:07:00,29.3,24.2,29.97,NW,319,3.8,8.1,81,0.00,-SN,,0.00,0.0,WeatherDisplay:10.37,2013-03-01 08:07:00,
2013-03-01 03:12:00,29.3,24.2,29.97,NW,322,1.1,1.5,81,0.00,-SN,,0.00,0.0,WeatherDisplay:10.37,2013-03-01 08:12:00,
2013-03-01 03:17:00,29.3,24.2,29.97,NW,316,3.6,3.6,81,0.00,-SN,,0.00,0.0,WeatherDisplay:10.37,2013-03-01 08:17:00,
2013-03-01 03:22:00,29.3,24.2,29.97,NW,322,1.2,4.5,81,0.00,-SN,,0.00,0.0,WeatherDisplay:10.37,2013-03-01 08:22:00,
2013-03-01 03:27:00,29.3,24.2,29.97,NW,322,3.0,4.6,81,0.00,-SN,,0.00,0.0,WeatherDisplay:10.37,2013-03-01 08:27:00,
2013-03-01 03:32:00,29.3,24.2,29.97,NW,326,2.9,4.6,81,0.00,-SN,,0.00,0.0,WeatherDisplay:10.37,2013-03-01 08:32:00,
2013-03-01 03:37:00,29.3,24.2,29.97,NW,320,0.0,1.2,81,0.00,-SN,,0.00,0.0,WeatherDisplay:10.37,2013-03-01 08:37:00,
2013-03-01 03:42:00,29.3,24.2,29.97,NW,320,0.0,0.0,81,0.00,-SN,,0.00,0.0,WeatherDisplay:10.37,2013-03-01 08:42:00,
2013-03-01 03:47:00,29.3,24.2,29.97,North,0,5.5,9.2,81,0.00,-SN,,0.00,0.0,WeatherDisplay:10.37,2013-03-01 08:47:00,
2013-03-01 03:53:00,29.1,23.4,29.97,North,0,2.5,3.5,79,0.00,-SN,,0.00,0.0,WeatherDisplay:10.37,2013-03-01 08:53:00,
2013-03-01 03:58:00,29.1,23.1,29.97,NNW,328,3.5,4.6,78,0.00,-SN,,0.00,0.0,WeatherDisplay:10.37,2013-03-01 08:58:00,
2013-03-01 04:03:00,29.1,23.1,29.97,NW,311,2.2,4.6,78,0.00,-SN,,0.00,0.0,WeatherDisplay:10.37,2013-03-01 09:03:00,
2013-03-01 04:08:00,29.1,23.1,29.97,North,6,4.0,4.6,78,0.00,-SN,,0.00,0.0,WeatherDisplay:10.37,2013-03-01 09:08:00,
2013-03-01 04:13:00,29.1,23.1,29.97,NW,305,1.7,1.7,78,0.00,-SN,,0.00,0.0,WeatherDisplay:10.37,2013-03-01 09:13:00,
2013-03-01 04:18:00,29.1,23.1,29.97,NNW,332,3.2,4.6,78,0.00,-SN,,0.00,0.0,WeatherDisplay:10.37,2013-03-01 09:18:00,
2013-03-01 04:23:00,29.0,23.0,29.97,NW,313,2.6,4.6,78,0.00,-SN,,0.00,0.0,WeatherDisplay:10.37,2013-03-01 09:23:00,
2013-03-01 04:28:00,29.0,23.0,29.97,NW,304,1.9,3.5,78,0.00,-SN,,0.00,0.0,WeatherDisplay:10.37,2013-03-01 09:28:00,
2013-03-01 04:33:00,29.0,23.0,29.98,NNW,330,5.6,11.5,78,0.00,-SN,,0.00,0.0,WeatherDisplay:10.37,2013-03-01 09:33:00,
2013-03-01 04:38:00,29.0,23.0,29.98,NNW,329,1.2,3.5,78,0.00,-SN,,0.00,0.0,WeatherDisplay:10.37,2013-03-01 09:38:00,
2013-03-01 04:43:00,29.0,23.0,29.98,NNE,28,4.3,6.0,78,0.00,-SN,,0.00,0.0,WeatherDisplay:10.37,2013-03-01 09:43:00,
2013-03-01 04:48:00,28.8,22.8,29.98,North,7,0.1,1.5,78,0.00,-SN,,0.00,0.0,WeatherDisplay:10.37,2013-03-01 09:48:00,
2013-03-01 04:53:00,28.8,22.8,29.98,North,359,2.4,3.5,78,0.00,-SN,,0.00,0.0,WeatherDisplay:10.37,2013-03-01 09:53:00,
2013-03-01 04:58:00,28.8,22.8,29.98,North,357,1.9,4.5,78,0.00,-SN,,0.00,0.0,WeatherDisplay:10.37,2013-03-01 09:58:00,
2013-03-01 05:03:00,28.8,22.8,29.99,NNW,332,2.2,4.6,78,0.00,-SN,,0.00,0.0,WeatherDisplay:10.37,2013-03-01 10:03:00,
2013-03-01 05:08:00,28.8,22.8,29.99,NW,312,3.0,5.8,78,0.00,-SN,,0.00,0.0,WeatherDisplay:10.37,2013-03-01 10:08:00,
2013-03-01 05:13:00,28.8,22.8,29.99,North,350,1.0,3.5,78,0.00,-SN,,0.00,0.0,WeatherDisplay:10.37,2013-03-01 10:13:00,
2013-03-01 05:18:00,28.8,22.8,29.99,NNW,344,2.3,4.6,78,0.00,-SN,,0.00,0.0,WeatherDisplay:10.37,2013-03-01 10:18:00,
2013-03-01 05:23:00,28.8,22.8,29.99,WNW,299,1.0,1.5,78,0.00,-SN,,0.00,0.0,WeatherDisplay:10.37,2013-03-01 10:23:00,
2013-03-01 05:28:00,28.8,22.8,29.99,ENE,59,1.9,7.5,78,0.00,-SN,,0.00,0.0,WeatherDisplay:10.37,2013-03-01 10:28:00,
2013-03-01 05:33:00,28.7,22.4,29.99,NW,326,0.3,3.0,77,0.00,-SN,,0.00,0.0,WeatherDisplay:10.37,2013-03-01 10:33:00,
2013-03-01 05:38:00,28.7,22.4,29.99,NNW,343,1.6,3.5,77,0.00,-SN,,0.00,0.0,WeatherDisplay:10.37,2013-03-01 10:38:00,
2013-03-01 05:43:00,28.7,22.4,29.99,North,0,3.6,9.2,77,0.00,-SN,,0.00,0.0,WeatherDisplay:10.37,2013-03-01 10:43:00,
2013-03-01 05:48:00,28.5,22.2,29.99,NNW,336,1.5,3.0,77,0.00,-SN,,0.00,0.0,WeatherDisplay:10.37,2013-03-01 10:48:00,
2013-03-01 05:53:00,28.5,22.5,29.99,North,0,2.7,4.6,78,0.00,-SN,,0.00,0.0,WeatherDisplay:10.37,2013-03-01 10:53:00,
2013-03-01 05:58:00,28.5,22.5,29.99,North,349,1.1,3.5,78,0.00,-SN,,0.00,0.0,WeatherDisplay:10.37,2013-03-01 10:58:00,
2013-03-01 06:03:00,28.5,22.5,30.00,NW,315,5.0,8.1,78,0.00,-SN,,0.00,0.0,WeatherDisplay:10.37,2013-03-01 11:03:00,
2013-03-01 06:08:00,28.5,22.2,30.00,NW,309,3.9,10.5,77,0.00,-SN,,0.00,0.0,WeatherDisplay:10.37,2013-03-01 11:08:00,
2013-03-01 06:13:00,28.4,22.1,30.00,NNW,347,1.4,3.5,77,0.00,-SN,,0.00,0.0,WeatherDisplay:10.37,2013-03-01 11:13:00,
2013-03-01 06:18:00,28.4,22.1,30.00,NW,322,5.8,8.1,77,0.00,-SN,,0.00,0.0,WeatherDisplay:10.37,2013-03-01 11:18:00,
2013-03-01 06:23:00,28.4,22.1,30.00,NW,312,0.5,3.5,77,0.00,-SN,,0.00,0.0,WeatherDisplay:10.37,2013-03-01 11:23:00,
2013-03-01 06:28:00,28.4,22.1,30.00,NNW,333,0.0,0.0,77,0.00,-SN,,0.00,0.0,WeatherDisplay:10.37,2013-03-01 11:28:00,
2013-03-01 06:33:00,28.2,21.6,30.01,North,349,3.0,4.6,76,0.00,-SN,,0.00,0.0,WeatherDisplay:10.37,2013-03-01 11:33:00,
2013-03-01 06:38:00,28.2,21.6,30.01,North,353,0.0,1.2,76,0.00,-SN,,0.00,0.0,WeatherDisplay:10.37,2013-03-01 11:38:00,
2013-03-01 06:44:00,28.1,21.2,30.01,North,356,5.1,8.1,75,0.00,-SN,,0.00,0.0,WeatherDisplay:10.37,2013-03-01 11:44:00,
2013-03-01 06:49:00,28.1,21.2,30.01,NNW,332,2.2,3.5,75,0.00,-SN,,0.00,0.0,WeatherDisplay:10.37,2013-03-01 11:49:00,
2013-03-01 06:54:00,27.9,21.0,30.01,NW,313,0.8,3.5,75,0.00,-SN,,0.00,0.0,WeatherDisplay:10.37,2013-03-01 11:54:00,
2013-03-01 06:59:00,27.9,21.3,30.01,NW,314,2.0,9.0,76,0.00,-SN,,0.00,0.0,WeatherDisplay:10.37,2013-03-01 11:59:00,
2013-03-01 07:04:00,27.9,21.3,30.01,North,349,1.1,1.5,76,0.00,-SN,,0.00,0.0,WeatherDisplay:10.37,2013-03-01 12:04:00,
2013-03-01 07:09:00,27.9,21.3,30.01,NNE,25,3.6,4.6,76,0.00,-SN,,0.00,0.0,WeatherDisplay:10.37,2013-03-01 12:09:00,
2013-03-01 07:14:00,27.9,21.6,30.01,NW,319,2.7,4.6,77,0.00,-SN,,0.00,0.0,WeatherDisplay:10.37,2013-03-01 12:14:00,
2013-03-01 07:19:00,27.8,21.5,30.01,NNW,343,3.4,3.5,77,0.00,-SN,,0.00,0.0,WeatherDisplay:10.37,2013-03-01 12:19:00,
2013-03-01 07:24:00,27.6,21.0,30.01,NNW,332,2.0,3.5,76,0.00,-SN,,0.00,5.0,WeatherDisplay:10.37,2013-03-01 12:24:00,
2013-03-01 07:29:00,27.6,21.0,30.01,North,0,1.9,4.6,76,0.00,-SN,,0.00,7.0,WeatherDisplay:10.37,2013-03-01 12:29:00,
2013-03-01 07:34:00,27.6,21.0,30.02,NW,311,5.1,5.8,76,0.00,-SN,,0.00,9.0,WeatherDisplay:10.37,2013-03-01 12:34:00,
2013-03-01 07:39:00,27.5,20.9,30.02,NW,320,5.1,8.1,76,0.00,-SN,,0.00,9.0,WeatherDisplay:10.37,2013-03-01 12:39:00,
2013-03-01 07:44:00,27.5,20.9,30.02,NW,304,1.4,3.5,76,0.00,-SN,,0.00,11.0,WeatherDisplay:10.37,2013-03-01 12:44:00,
2013-03-01 07:49:00,27.5,20.9,30.02,NW,319,5.1,9.2,76,0.00,-SN,,0.00,14.0,WeatherDisplay:10.37,2013-03-01 12:49:00,
2013-03-01 07:54:00,27.3,20.4,30.02,NW,316,8.6,9.2,75,0.00,-SN,,0.00,16.0,WeatherDisplay:10.37,2013-03-01 12:54:00,
2013-03-01 07:59:00,27.3,20.4,30.02,NW,325,5.3,10.4,75,0.00,-SN,,0.00,23.0,WeatherDisplay:10.37,2013-03-01 12:59:00,
2013-03-01 08:04:00,27.2,20.3,30.03,NW,326,7.2,8.1,75,0.00,-SN,,0.00,21.0,WeatherDisplay:10.37,2013-03-01 13:04:00,
2013-03-01 08:09:00,27.3,20.4,30.03,NNW,330,1.1,3.5,75,0.00,-SN,,0.00,23.0,WeatherDisplay:10.37,2013-03-01 13:09:00,
2013-03-01 08:14:00,27.3,20.4,30.03,NW,315,6.6,8.1,75,0.00,-SN,,0.00,25.0,WeatherDisplay:10.37,2013-03-01 13:14:00,
2013-03-01 08:19:00,27.3,20.4,30.04,WNW,301,2.3,4.6,75,0.00,-SN,,0.00,25.0,WeatherDisplay:10.37,2013-03-01 13:19:00,
2013-03-01 08:24:00,27.3,20.4,30.04,NW,304,2.1,4.6,75,0.00,-SN,,0.00,28.0,WeatherDisplay:10.37,2013-03-01 13:24:00,
2013-03-01 08:29:00,27.3,20.4,30.04,NW,320,7.5,10.4,75,0.00,-SN,,0.00,30.0,WeatherDisplay:10.37,2013-03-01 13:29:00,
2013-03-01 08:34:00,27.2,20.6,30.04,NW,318,1.3,4.6,76,0.00,-SN,,0.00,33.0,WeatherDisplay:10.37,2013-03-01 13:34:00,
2013-03-01 08:39:00,27.3,20.7,30.04,NW,308,4.4,8.1,76,0.00,-SN,,0.00,33.0,WeatherDisplay:10.37,2013-03-01 13:39:00,
2013-03-01 08:44:00,27.3,20.7,30.04,NW,322,1.0,4.6,76,0.00,-SN,,0.00,33.0,WeatherDisplay:10.37,2013-03-01 13:44:00,
2013-03-01 08:49:00,27.5,21.2,30.05,WNW,292,0.0,1.5,77,0.00,-SN,,0.00,44.0,WeatherDisplay:10.37,2013-03-01 13:49:00,
2013-03-01 08:54:00,27.5,20.9,30.05,WNW,302,2.0,8.1,76,0.00,-SN,,0.00,39.0,WeatherDisplay:10.37,2013-03-01 13:54:00,
2013-03-01 08:59:00,27.3,20.7,30.05,NNW,335,13.3,13.3,76,0.00,-SN,,0.00,33.0,WeatherDisplay:10.37,2013-03-01 13:59:00,
2013-03-01 09:04:00,27.2,20.9,30.06,North,352,5.6,8.1,77,0.00,OVC,,0.00,35.0,WeatherDisplay:10.37,2013-03-01 14:04:00,
2013-03-01 09:09:00,27.0,20.7,30.06,NNW,343,5.8,8.1,77,0.00,OVC,,0.00,40.0,WeatherDisplay:10.37,2013-03-01 14:09:00,
2013-03-01 09:14:00,26.9,20.7,30.06,NNE,28,6.6,11.5,77,0.00,OVC,,0.00,44.0,WeatherDisplay:10.37,2013-03-01 14:14:00,
2013-03-01 09:19:00,26.9,20.7,30.06,WNW,296,4.5,4.6,77,0.00,OVC,,0.00,55.0,WeatherDisplay:10.37,2013-03-01 14:19:00,
2013-03-01 09:24:00,26.9,20.3,30.06,North,357,3.6,8.1,76,0.00,OVC,,0.00,62.0,WeatherDisplay:10.37,2013-03-01 14:24:00,
2013-03-01 09:29:00,26.9,20.3,30.06,NW,313,6.4,9.2,76,0.00,OVC,,0.00,69.0,WeatherDisplay:10.37,2013-03-01 14:29:00,
2013-03-01 09:34:00,27.0,20.4,30.06,NNW,339,8.7,11.5,76,0.00,OVC,,0.00,72.0,WeatherDisplay:10.37,2013-03-01 14:34:00,
2013-03-01 09:39:00,27.2,20.6,30.06,NNW,339,0.0,0.0,76,0.00,OVC,,0.00,72.0,WeatherDisplay:10.37,2013-03-01 14:39:00,
2013-03-01 09:44:00,27.3,20.7,30.06,NW,320,1.3,1.5,76,0.00,OVC,,0.00,65.0,WeatherDisplay:10.37,2013-03-01 14:44:00,
2013-03-01 09:49:00,27.2,20.6,30.06,NNW,335,7.6,9.2,76,0.00,OVC,,0.00,63.0,WeatherDisplay:10.37,2013-03-01 14:49:00,
2013-03-01 09:54:00,27.0,20.7,30.06,NNW,328,4.1,9.2,77,0.00,OVC,,0.00,56.0,WeatherDisplay:10.37,2013-03-01 14:54:00,
2013-03-01 09:59:00,27.0,21.1,30.06,WNW,289,0.7,3.5,78,0.00,OVC,,0.00,62.0,WeatherDisplay:10.37,2013-03-01 14:59:00,
2013-03-01 10:04:00,26.9,21.0,30.06,NW,318,3.6,4.6,78,0.00,OVC,,0.00,62.0,WeatherDisplay:10.37,2013-03-01 15:04:00,
2013-03-01 10:09:00,26.9,21.0,30.06,NW,318,3.0,5.8,78,0.00,OVC,,0.00,62.0,WeatherDisplay:10.37,2013-03-01 15:09:00,
2013-03-01 10:14:00,26.7,20.8,30.06,NW,308,3.0,4.6,78,0.00,OVC,,0.00,67.0,WeatherDisplay:10.37,2013-03-01 15:14:00,
2013-03-01 10:19:00,26.7,20.8,30.07,NNE,20,4.2,4.6,78,0.00,OVC,,0.00,70.0,WeatherDisplay:10.37,2013-03-01 15:19:00,
2013-03-01 10:24:00,26.7,20.8,30.07,NNW,333,5.5,8.1,78,0.00,OVC,,0.00,69.0,WeatherDisplay:10.37,2013-03-01 15:24:00,
2013-03-01 10:29:00,26.7,20.8,30.07,NNW,347,2.6,4.6,78,0.00,OVC,,0.00,70.0,WeatherDisplay:10.37,2013-03-01 15:29:00,
2013-03-01 10:34:00,26.7,20.8,30.07,North,0,0.3,3.5,78,0.00,OVC,,0.00,72.0,WeatherDisplay:10.37,2013-03-01 15:34:00,
2013-03-01 10:39:00,26.9,21.0,30.07,NW,316,6.9,10.5,78,0.00,OVC,,0.00,79.0,WeatherDisplay:10.37,2013-03-01 15:39:00,
2013-03-01 10:44:00,26.9,20.7,30.07,NW,318,6.9,8.1,77,0.00,OVC,,0.00,104.0,WeatherDisplay:10.37,2013-03-01 15:44:00,
2013-03-01 10:49:00,27.0,20.7,30.07,NW,312,3.7,8.1,77,0.00,BKN,,0.00,171.0,WeatherDisplay:10.37,2013-03-01 15:49:00,
2013-03-01 10:54:00,27.3,20.7,30.07,NW,312,4.6,10.5,76,0.00,BKN,,0.00,134.0,WeatherDisplay:10.37,2013-03-01 15:54:00,
2013-03-01 10:59:00,27.3,20.7,30.07,NW,313,2.5,4.6,76,0.00,OVC,,0.00,86.0,WeatherDisplay:10.37,2013-03-01 15:59:00,
2013-03-01 11:04:00,27.2,20.6,30.07,NNW,346,1.9,3.5,76,0.00,OVC,,0.00,88.0,WeatherDisplay:10.37,2013-03-01 16:04:00,
2013-03-01 11:09:00,27.2,20.6,30.07,NW,323,1.5,9.2,76,0.00,OVC,,0.00,114.0,WeatherDisplay:10.37,2013-03-01 16:09:00,
2013-03-01 11:14:00,27.3,20.4,30.07,NE,47,6.9,9.0,75,0.00,OVC,,0.00,139.0,WeatherDisplay:10.37,2013-03-01 16:14:00,
2013-03-01 11:19:00,27.5,20.6,30.07,North,0,1.7,1.7,75,0.00,OVC,,0.00,99.0,WeatherDisplay:10.37,2013-03-01 16:19:00,
2013-03-01 11:24:00,27.3,20.4,30.07,NW,323,6.6,16.5,75,0.00,OVC,,0.00,104.0,WeatherDisplay:10.37,2013-03-01 16:24:00,
2013-03-01 11:29:00,27.3,20.4,30.07,NNE,24,1.6,3.5,75,0.00,OVC,,0.00,116.0,WeatherDisplay:10.37,2013-03-01 16:29:00,
2013-03-01 11:34:00,27.3,20.4,30.08,NNE,18,0.8,1.5,75,0.00,OVC,,0.00,123.0,WeatherDisplay:10.37,2013-03-01 16:34:00,
2013-03-01 11:39:00,27.3,20.1,30.08,NNE,28,4.4,4.6,74,0.00,OVC,,0.00,121.0,WeatherDisplay:10.37,2013-03-01 16:39:00,
2013-03-01 11:44:00,27.3,20.1,30.08,North,359,3.7,5.8,74,0.00,OVC,,0.00,151.0,WeatherDisplay:10.37,2013-03-01 16:44:00,
2013-03-01 11:49:00,27.3,20.1,30.07,NNW,339,11.9,11.9,74,0.00,OVC,,0.00,130.0,WeatherDisplay:10.37,2013-03-01 16:49:00,
2013-03-01 11:54:00,27.0,20.1,30.07,NW,313,6.2,10.5,75,0.00,OVC,,0.00,123.0,WeatherDisplay:10.37,2013-03-01 16:54:00,
2013-03-01 11:59:00,27.0,20.1,30.07,North,354,2.5,4.6,75,0.00,OVC,,0.00,128.0,WeatherDisplay:10.37,2013-03-01 16:59:00,
2013-03-01 12:04:00,27.3,20.4,30.08,WNW,292,3.4,8.1,75,0.00,OVC,,0.00,139.0,WeatherDisplay:10.37,2013-03-01 17:04:00,
2013-03-01 12:09:00,27.3,20.4,30.08,NW,318,5.2,8.1,75,0.00,OVC,,0.00,150.0,WeatherDisplay:10.37,2013-03-01 17:09:00,
2013-03-01 12:14:00,27.5,20.3,30.08,NW,318,4.0,7.5,74,0.00,OVC,,0.00,141.0,WeatherDisplay:10.37,2013-03-01 17:14:00,
2013-03-01 12:19:00,27.3,20.1,30.08,NNW,340,3.1,10.4,74,0.00,OVC,,0.00,151.0,WeatherDisplay:10.37,2013-03-01 17:19:00,
2013-03-01 12:24:00,27.6,20.4,30.08,NNW,340,0.3,1.2,74,0.00,OVC,,0.00,157.0,WeatherDisplay:10.37,2013-03-01 17:24:00,
2013-03-01 12:29:00,27.8,20.6,30.08,NW,323,5.7,7.5,74,0.00,OVC,,0.00,137.0,WeatherDisplay:10.37,2013-03-01 17:29:00,
2013-03-01 12:34:00,27.8,20.3,30.07,NW,322,4.5,8.1,73,0.00,OVC,,0.00,143.0,WeatherDisplay:10.37,2013-03-01 17:34:00,
2013-03-01 12:39:00,27.8,20.3,30.07,NNW,339,5.8,9.2,73,0.00,OVC,,0.00,137.0,WeatherDisplay:10.37,2013-03-01 17:39:00,
2013-03-01 12:44:00,27.5,20.3,30.07,NW,304,6.0,9.2,74,0.00,OVC,,0.00,137.0,WeatherDisplay:10.37,2013-03-01 17:44:00,
2013-03-01 12:49:00,27.6,20.7,30.07,NNW,329,3.7,3.7,75,0.00,OVC,,0.00,135.0,WeatherDisplay:10.37,2013-03-01 17:49:00,
2013-03-01 12:54:00,27.5,20.3,30.07,North,349,5.2,9.0,74,0.00,OVC,,0.00,139.0,WeatherDisplay:10.37,2013-03-01 17:54:00,
2013-03-01 12:59:00,27.5,20.3,30.07,WNW,301,6.8,6.8,74,0.00,OVC,,0.00,151.0,WeatherDisplay:10.37,2013-03-01 17:59:00,
2013-03-01 13:04:00,27.6,20.7,30.07,WNW,298,1.7,3.0,75,0.00,OVC,,0.00,125.0,WeatherDisplay:10.37,2013-03-01 18:04:00,
2013-03-01 13:09:00,27.8,20.6,30.07,NW,305,0.5,1.2,74,0.00,OVC,,0.00,134.0,WeatherDisplay:10.37,2013-03-01 18:09:00,
2013-03-01 13:14:00,27.9,20.4,30.07,NW,313,3.4,4.6,73,0.00,OVC,,0.00,123.0,WeatherDisplay:10.37,2013-03-01 18:14:00,
2013-03-01 13:19:00,27.8,20.6,30.07,NW,320,3.1,9.2,74,0.00,OVC,,0.00,104.0,WeatherDisplay:10.37,2013-03-01 18:19:00,
2013-03-01 13:24:00,27.5,20.6,30.07,NW,311,6.9,11.5,75,0.00,OVC,,0.00,114.0,WeatherDisplay:10.37,2013-03-01 18:24:00,
2013-03-01 13:29:00,27.5,20.6,30.07,NW,323,3.4,7.5,75,0.00,OVC,,0.00,128.0,WeatherDisplay:10.37,2013-03-01 18:29:00,
2013-03-01 13:34:00,27.3,20.1,30.07,NW,320,5.4,6.0,74,0.00,OVC,,0.00,132.0,WeatherDisplay:10.37,2013-03-01 18:34:00,
2013-03-01 13:39:00,27.0,19.8,30.07,NNW,337,6.7,9.0,74,0.00,OVC,,0.00,130.0,WeatherDisplay:10.37,2013-03-01 18:39:00,
2013-03-01 13:45:00,27.0,19.8,30.07,NW,316,5.2,10.5,74,0.00,OVC,,0.00,143.0,WeatherDisplay:10.37,2013-03-01 18:45:00,
2013-03-01 13:50:00,27.3,20.4,30.06,North,6,3.7,4.5,75,0.00,OVC,,0.00,144.0,WeatherDisplay:10.37,2013-03-01 18:50:00,
2013-03-01 13:55:00,27.3,20.1,30.06,NNW,328,5.6,5.8,74,0.00,OVC,,0.00,137.0,WeatherDisplay:10.37,2013-03-01 18:55:00,
2013-03-01 14:00:00,27.3,20.1,30.06,NNW,328,5.1,5.1,74,0.00,OVC,,0.00,127.0,WeatherDisplay:10.37,2013-03-01 19:00:00,
2013-03-01 14:05:00,27.5,20.3,30.06,NW,305,2.9,6.0,74,0.00,OVC,,0.00,169.0,WeatherDisplay:10.37,2013-03-01 19:05:00,
2013-03-01 14:10:00,27.6,20.4,30.06,NNW,339,1.9,3.5,74,0.00,OVC,,0.00,155.0,WeatherDisplay:10.37,2013-03-01 19:10:00,
2013-03-01 14:15:00,27.8,20.6,30.06,NW,320,4.8,4.8,74,0.00,OVC,,0.00,151.0,WeatherDisplay:10.37,2013-03-01 19:15:00,
2013-03-01 14:20:00,27.8,20.6,30.06,NE,38,3.5,9.2,74,0.00,OVC,,0.00,158.0,WeatherDisplay:10.37,2013-03-01 19:20:00,
2013-03-01 14:25:00,27.8,20.3,30.06,NW,320,3.7,6.0,73,0.00,OVC,,0.00,148.0,WeatherDisplay:10.37,2013-03-01 19:25:00,
2013-03-01 14:30:00,27.6,20.1,30.06,NW,323,6.6,6.6,73,0.00,OVC,,0.00,134.0,WeatherDisplay:10.37,2013-03-01 19:30:00,
2013-03-01 14:35:00,27.5,20.0,30.06,NW,318,6.2,9.2,73,0.00,OVC,,0.00,111.0,WeatherDisplay:10.37,2013-03-01 19:35:00,
2013-03-01 14:40:00,27.6,20.4,30.06,NW,325,0.9,1.5,74,0.00,OVC,,0.00,100.0,WeatherDisplay:10.37,2013-03-01 19:40:00,
2013-03-01 14:45:00,27.8,20.6,30.06,NW,320,2.7,5.8,74,0.00,OVC,,0.00,111.0,WeatherDisplay:10.37,2013-03-01 19:45:00,
2013-03-01 14:50:00,27.6,20.4,30.06,NW,320,6.0,9.2,74,0.00,OVC,,0.00,111.0,WeatherDisplay:10.37,2013-03-01 19:50:00,
2013-03-01 14:55:00,27.6,20.4,30.06,NW,315,4.0,9.0,74,0.00,OVC,,0.00,111.0,WeatherDisplay:10.37,2013-03-01 19:55:00,
2013-03-01 15:00:00,27.5,20.3,30.06,NNW,328,5.7,5.8,74,0.00,OVC,,0.00,99.0,WeatherDisplay:10.37,2013-03-01 20:00:00,
2013-03-01 15:05:00,27.3,20.1,30.06,NNW,329,1.8,9.0,74,0.00,OVC,,0.00,104.0,WeatherDisplay:10.37,2013-03-01 20:05:00,
2013-03-01 15:10:00,27.3,20.4,30.06,NNW,329,0.7,1.5,75,0.00,OVC,,0.00,93.0,WeatherDisplay:10.37,2013-03-01 20:10:00,
2013-03-01 15:15:00,27.5,20.6,30.06,NW,323,0.5,4.5,75,0.00,OVC,,0.00,104.0,WeatherDisplay:10.37,2013-03-01 20:15:00,
2013-03-01 15:20:00,27.5,20.6,30.06,NW,315,7.9,8.1,75,0.00,OVC,,0.00,95.0,WeatherDisplay:10.37,2013-03-01 20:20:00,
2013-03-01 15:25:00,27.2,20.3,30.06,NNW,335,10.7,15.0,75,0.00,OVC,,0.00,86.0,WeatherDisplay:10.37,2013-03-01 20:25:00,
2013-03-01 15:30:00,27.0,20.1,30.06,NW,320,8.5,9.2,75,0.00,OVC,,0.00,88.0,WeatherDisplay:10.37,2013-03-01 20:30:00,
2013-03-01 15:35:00,27.0,20.4,30.06,NW,319,1.5,3.5,76,0.00,OVC,,0.00,76.0,WeatherDisplay:10.37,2013-03-01 20:35:00,
2013-03-01 15:40:00,27.0,20.4,30.06,NW,319,3.6,7.5,76,0.00,OVC,,0.00,81.0,WeatherDisplay:10.37,2013-03-01 20:40:00,
2013-03-01 15:45:00,27.0,20.4,30.06,NW,319,2.7,3.5,76,0.00,OVC,,0.00,77.0,WeatherDisplay:10.37,2013-03-01 20:45:00,
2013-03-01 15:50:00,27.0,20.4,30.06,NW,322,2.8,3.5,76,0.00,OVC,,0.00,74.0,WeatherDisplay:10.37,2013-03-01 20:50:00,
2013-03-01 15:55:00,27.0,20.4,30.06,WNW,301,2.8,4.6,76,0.00,OVC,,0.00,76.0,WeatherDisplay:10.37,2013-03-01 20:55:00,
2013-03-01 16:00:00,27.0,20.1,30.06,NW,318,8.8,9.2,75,0.00,OVC,,0.00,69.0,WeatherDisplay:10.37,2013-03-01 21:00:00,
2013-03-01 16:05:00,26.9,20.3,30.06,NW,320,2.7,3.5,76,0.00,OVC,,0.00,65.0,WeatherDisplay:10.37,2013-03-01 21:05:00,
2013-03-01 16:10:00,26.9,20.3,30.06,North,359,1.6,3.5,76,0.00,OVC,,0.00,63.0,WeatherDisplay:10.37,2013-03-01 21:10:00,
2013-03-01 16:15:00,26.9,20.3,30.06,NNE,27,4.0,4.6,76,0.00,OVC,,0.00,67.0,WeatherDisplay:10.37,2013-03-01 21:15:00,
2013-03-01 16:20:00,26.9,20.3,30.06,NW,320,5.2,8.1,76,0.00,OVC,,0.00,56.0,WeatherDisplay:10.37,2013-03-01 21:20:00,
2013-03-01 16:25:00,26.7,20.1,30.06,NW,322,4.8,5.8,76,0.00,OVC,,0.00,51.0,WeatherDisplay:10.37,2013-03-01 21:25:00,
2013-03-01 16:30:00,26.6,20.1,30.06,NW,320,2.9,4.6,76,0.00,OVC,,0.00,46.0,WeatherDisplay:10.37,2013-03-01 21:30:00,
2013-03-01 16:35:00,26.7,20.5,30.07,WNW,285,1.5,1.5,77,0.00,OVC,,0.00,40.0,WeatherDisplay:10.37,2013-03-01 21:35:00,
2013-03-01 16:40:00,26.6,20.4,30.07,WNW,294,3.2,4.6,77,0.00,OVC,,0.00,40.0,WeatherDisplay:10.37,2013-03-01 21:40:00,
2013-03-01 16:45:00,26.4,19.9,30.07,North,353,5.8,10.4,76,0.00,OVC,,0.00,42.0,WeatherDisplay:10.37,2013-03-01 21:45:00,
2013-03-01 16:50:00,26.3,19.8,30.08,NNW,339,4.8,8.1,76,0.00,OVC,,0.00,37.0,WeatherDisplay:10.37,2013-03-01 21:50:00,
2013-03-01 16:55:00,26.3,20.1,30.08,NNW,336,3.8,4.6,77,0.00,OVC,,0.00,33.0,WeatherDisplay:10.37,2013-03-01 21:55:00,
2013-03-01 17:00:00,26.3,20.1,30.08,WNW,294,10.9,18.4,77,0.00,OVC,,0.00,37.0,WeatherDisplay:10.37,2013-03-01 22:00:00,
2013-03-01 17:05:00,26.3,20.1,30.08,NNW,328,0.2,1.5,77,0.00,OVC,,0.00,33.0,WeatherDisplay:10.37,2013-03-01 22:05:00,
2013-03-01 17:10:00,26.3,20.1,30.08,NNW,328,3.8,5.8,77,0.00,OVC,,0.00,33.0,WeatherDisplay:10.37,2013-03-01 22:10:00,
2013-03-01 17:15:00,26.3,19.8,30.08,NW,326,6.9,8.1,76,0.00,OVC,,0.00,30.0,WeatherDisplay:10.37,2013-03-01 22:15:00,
2013-03-01 17:20:00,26.3,20.1,30.08,NW,325,1.1,1.2,77,0.00,OVC,,0.00,25.0,WeatherDisplay:10.37,2013-03-01 22:20:00,
2013-03-01 17:25:00,26.3,20.1,30.08,WNW,292,2.2,3.5,77,0.00,OVC,,0.00,23.0,WeatherDisplay:10.37,2013-03-01 22:25:00,
2013-03-01 17:30:00,26.1,19.9,30.08,NNW,342,7.7,10.4,77,0.00,OVC,,0.00,21.0,WeatherDisplay:10.37,2013-03-01 22:30:00,
2013-03-01 17:35:00,26.0,19.8,30.08,NNW,337,2.8,3.5,77,0.00,OVC,,0.00,19.0,WeatherDisplay:10.37,2013-03-01 22:35:00,
2013-03-01 17:40:00,26.0,20.1,30.08,NW,323,1.2,4.5,78,0.00,OVC,,0.00,16.0,WeatherDisplay:10.37,2013-03-01 22:40:00,
2013-03-01 17:45:00,26.0,19.8,30.08,NW,322,4.3,4.6,77,0.00,OVC,,0.00,16.0,WeatherDisplay:10.37,2013-03-01 22:45:00,
2013-03-01 17:50:00,26.0,20.1,30.09,NW,326,4.5,9.2,78,0.00,OVC,,0.00,12.0,WeatherDisplay:10.37,2013-03-01 22:50:00,
2013-03-01 17:55:00,26.1,20.2,30.09,NNW,328,5.3,8.1,78,0.00,OVC,,0.00,11.0,WeatherDisplay:10.37,2013-03-01 22:55:00,
2013-03-01 18:00:00,26.0,19.8,30.09,WNW,285,5.0,8.1,77,0.00,OVC,,0.00,7.0,WeatherDisplay:10.37,2013-03-01 23:00:00,
2013-03-01 18:05:00,26.0,20.1,30.09,NW,323,4.3,8.1,78,0.00,OVC,,0.00,5.0,WeatherDisplay:10.37,2013-03-01 23:05:00,
2013-03-01 18:10:00,26.0,20.1,30.09,NW,315,5.3,8.1,78,0.00,OVC,,0.00,5.0,WeatherDisplay:10.37,2013-03-01 23:10:00,
2013-03-01 18:15:00,26.0,20.1,30.09,NW,315,1.8,4.6,78,0.00,OVC,,0.00,0.0,WeatherDisplay:10.37,2013-03-01 23:15:00,
2013-03-01 18:20:00,26.0,20.1,30.09,NW,315,4.3,4.6,78,0.00,OVC,,0.00,0.0,WeatherDisplay:10.37,2013-03-01 23:20:00,
2013-03-01 18:25:00,26.0,20.1,30.09,WNW,285,8.7,9.2,78,0.00,OVC,,0.00,0.0,WeatherDisplay:10.37,2013-03-01 23:25:00,
2013-03-01 18:30:00,25.8,19.9,30.09,WNW,292,1.9,3.5,78,0.00,OVC,,0.00,0.0,WeatherDisplay:10.37,2013-03-01 23:30:00,
2013-03-01 18:35:00,25.8,19.9,30.10,NNW,339,4.4,5.8,78,0.00,OVC,,0.00,0.0,WeatherDisplay:10.37,2013-03-01 23:35:00,
2013-03-01 18:40:00,25.8,19.9,30.10,NNW,332,3.6,3.6,78,0.00,OVC,,0.00,0.0,WeatherDisplay:10.37,2013-03-01 23:40:00,
2013-03-01 18:45:00,25.8,19.9,30.10,NW,325,1.3,1.5,78,0.00,OVC,,0.00,0.0,WeatherDisplay:10.37,2013-03-01 23:45:00,
2013-03-01 18:50:00,25.8,19.9,30.10,NW,325,3.2,4.6,78,0.00,OVC,,0.00,0.0,WeatherDisplay:10.37,2013-03-01 23:50:00,
2013-03-01 18:55:00,25.8,19.9,30.10,NW,322,3.1,4.6,78,0.00,OVC,,0.00,0.0,WeatherDisplay:10.37,2013-03-01 23:55:00,
2013-03-01 19:00:00,25.8,19.9,30.10,NNE,27,5.3,9.2,78,0.00,-SN,,0.00,0.0,WeatherDisplay:10.37,2013-03-02 00:00:00,
2013-03-01 19:05:00,25.8,19.9,30.10,NNW,330,3.5,3.5,78,0.00,-SN,,0.00,0.0,WeatherDisplay:10.37,2013-03-02 00:05:00,
2013-03-01 19:10:00,25.8,19.9,30.10,NW,320,1.7,3.5,78,0.00,-SN,,0.00,0.0,WeatherDisplay:10.37,2013-03-02 00:10:00,
2013-03-01 19:15:00,25.8,20.2,30.10,NW,320,2.0,3.5,79,0.00,-SN,,0.00,0.0,WeatherDisplay:10.37,2013-03-02 00:15:00,
2013-03-01 19:20:00,25.8,20.2,30.10,NNW,333,3.0,4.6,79,0.00,-SN,,0.00,0.0,WeatherDisplay:10.37,2013-03-02 00:20:00,
2013-03-01 19:25:00,25.8,19.9,30.10,NW,306,0.8,3.5,78,0.00,-SN,,0.00,0.0,WeatherDisplay:10.37,2013-03-02 00:25:00,
2013-03-01 19:30:00,26.0,20.4,30.10,NW,312,1.6,3.5,79,0.00,-SN,,0.00,0.0,WeatherDisplay:10.37,2013-03-02 00:30:00,
2013-03-01 19:35:00,26.0,20.4,30.10,NNW,346,0.0,0.0,79,0.00,-SN,,0.00,0.0,WeatherDisplay:10.37,2013-03-02 00:35:00,
2013-03-01 19:40:00,26.0,20.1,30.10,NW,316,2.7,4.6,78,0.00,-SN,,0.00,0.0,WeatherDisplay:10.37,2013-03-02 00:40:00,
2013-03-01 19:45:00,26.0,20.1,30.10,North,0,2.3,3.5,78,0.00,-SN,,0.00,0.0,WeatherDisplay:10.37,2013-03-02 00:45:00,
2013-03-01 19:50:00,26.0,20.1,30.11,NNE,13,3.7,4.6,78,0.00,-SN,,0.00,0.0,WeatherDisplay:10.37,2013-03-02 00:50:00,
2013-03-01 19:55:00,26.0,20.1,30.11,North,0,2.2,3.5,78,0.00,-SN,,0.00,0.0,WeatherDisplay:10.37,2013-03-02 00:55:00,
2013-03-01 20:00:00,26.0,20.1,30.11,NW,322,4.3,8.1,78,0.00,OVC,,0.00,0.0,WeatherDisplay:10.37,2013-03-02 01:00:00,
2013-03-01 20:05:00,26.1,20.2,30.11,NW,320,0.6,1.5,78,0.00,OVC,,0.00,0.0,WeatherDisplay:10.37,2013-03-02 01:05:00,
2013-03-01 20:10:00,26.1,20.2,30.11,NW,323,4.1,4.6,78,0.00,OVC,,0.00,0.0,WeatherDisplay:10.37,2013-03-02 01:10:00,
2013-03-01 20:15:00,26.1,20.2,30.11,NNW,336,3.6,4.6,78,0.00,OVC,,0.00,0.0,WeatherDisplay:10.37,2013-03-02 01:15:00,
2013-03-01 20:20:00,26.1,20.2,30.11,NNW,340,3.1,4.6,78,0.00,OVC,,0.00,0.0,WeatherDisplay:10.37,2013-03-02 01:20:00,
2013-03-01 20:25:00,26.1,20.2,30.11,NNE,32,2.8,3.5,78,0.00,OVC,,0.00,0.0,WeatherDisplay:10.37,2013-03-02 01:25:00,
2013-03-01 20:30:00,26.1,19.9,30.11,NW,313,2.2,3.5,77,0.00,OVC,,0.00,0.0,WeatherDisplay:10.37,2013-03-02 01:30:00,
2013-03-01 20:35:00,26.1,19.9,30.11,North,1,4.5,4.6,77,0.00,OVC,,0.00,0.0,WeatherDisplay:10.37,2013-03-02 01:35:00,
2013-03-01 20:40:00,26.3,20.1,30.11,North,1,0.1,1.2,77,0.00,OVC,,0.00,0.0,WeatherDisplay:10.37,2013-03-02 01:40:00,
2013-03-01 20:45:00,26.3,20.1,30.11,North,1,0.0,0.0,77,0.00,OVC,,0.00,0.0,WeatherDisplay:10.37,2013-03-02 01:45:00,
2013-03-01 20:50:00,26.3,20.4,30.11,NNW,329,8.3,9.2,78,0.00,OVC,,0.00,0.0,WeatherDisplay:10.37,2013-03-02 01:50:00,
2013-03-01 20:55:00,26.3,20.1,30.11,WNW,285,4.5,8.1,77,0.00,OVC,,0.00,0.0,WeatherDisplay:10.37,2013-03-02 01:55:00,
2013-03-01 21:00:00,26.3,20.1,30.11,WNW,285,0.6,1.2,77,0.00,-SN,,0.00,0.0,WeatherDisplay:10.37,2013-03-02 02:00:00,
2013-03-01 21:05:00,26.3,20.1,30.11,North,352,2.1,3.5,77,0.00,-SN,,0.00,0.0,WeatherDisplay:10.37,2013-03-02 02:05:00,
2013-03-01 21:11:00,26.3,20.1,30.11,NW,318,5.7,5.7,77,0.00,-SN,,0.00,0.0,WeatherDisplay:10.37,2013-03-02 02:11:00,
2013-03-01 21:16:00,26.3,20.1,30.11,NW,319,0.3,1.5,77,0.00,-SN,,0.00,0.0,WeatherDisplay:10.37,2013-03-02 02:16:00,
2013-03-01 21:21:00,26.3,20.1,30.11,NW,319,1.0,1.5,77,0.00,-SN,,0.00,0.0,WeatherDisplay:10.37,2013-03-02 02:21:00,
2013-03-01 21:26:00,26.3,20.1,30.11,NNW,342,3.3,8.1,77,0.00,-SN,,0.00,0.0,WeatherDisplay:10.37,2013-03-02 02:26:00,
2013-03-01 21:31:00,26.3,20.1,30.11,NNW,342,0.4,1.2,77,0.00,-SN,,0.00,0.0,WeatherDisplay:10.37,2013-03-02 02:31:00,
2013-03-01 21:36:00,26.3,20.4,30.12,North,359,1.9,3.5,78,0.00,-SN,,0.00,0.0,WeatherDisplay:10.37,2013-03-02 02:36:00,
2013-03-01 21:41:00,26.3,20.1,30.12,North,349,4.5,5.8,77,0.00,-SN,,0.00,0.0,WeatherDisplay:10.37,2013-03-02 02:41:00,
2013-03-01 21:46:00,26.1,19.9,30.12,North,0,0.8,1.5,77,0.00,-SN,,0.00,0.0,WeatherDisplay:10.37,2013-03-02 02:46:00,
2013-03-01 21:51:00,26.1,19.9,30.12,North,0,0.5,1.5,77,0.00,-SN,,0.00,0.0,WeatherDisplay:10.37,2013-03-02 02:51:00,
2013-03-01 21:56:00,26.1,19.9,30.12,NNW,346,0.2,1.5,77,0.00,-SN,,0.00,0.0,WeatherDisplay:10.37,2013-03-02 02:56:00,
2013-03-01 22:01:00,26.1,19.9,30.12,NNW,339,2.3,3.5,77,0.00,-SN,,0.00,0.0,WeatherDisplay:10.37,2013-03-02 03:01:00,
2013-03-01 22:06:00,26.1,19.9,30.12,NNW,339,1.0,4.6,77,0.00,-SN,,0.00,0.0,WeatherDisplay:10.37,2013-03-02 03:06:00,
2013-03-01 22:11:00,26.1,19.9,30.12,WNW,291,2.4,7.5,77,0.00,-SN,,0.00,0.0,WeatherDisplay:10.37,2013-03-02 03:11:00,
2013-03-01 22:16:00,26.1,19.9,30.12,WNW,295,1.3,1.3,77,0.00,-SN,,0.00,0.0,WeatherDisplay:10.37,2013-03-02 03:16:00,
2013-03-01 22:21:00,26.0,19.8,30.12,NE,48,3.0,4.6,77,0.00,-SN,,0.00,0.0,WeatherDisplay:10.37,2013-03-02 03:21:00,
2013-03-01 22:26:00,26.0,19.5,30.12,NNW,347,2.7,3.5,76,0.00,-SN,,0.00,0.0,WeatherDisplay:10.37,2013-03-02 03:26:00,
2013-03-01 22:31:00,26.0,19.5,30.12,North,7,0.2,3.0,76,0.00,-SN,,0.00,0.0,WeatherDisplay:10.37,2013-03-02 03:31:00,
2013-03-01 22:36:00,26.0,19.5,30.12,NE,48,2.0,5.8,76,0.00,-SN,,0.00,0.0,WeatherDisplay:10.37,2013-03-02 03:36:00,
2013-03-01 22:41:00,25.8,19.3,30.12,North,356,0.6,3.5,76,0.00,-SN,,0.00,0.0,WeatherDisplay:10.37,2013-03-02 03:41:00,
2013-03-01 22:46:00,25.8,19.6,30.12,North,356,1.0,1.5,77,0.00,-SN,,0.00,0.0,WeatherDisplay:10.37,2013-03-02 03:46:00,
2013-03-01 22:51:00,25.8,19.6,30.12,NNW,347,0.2,3.5,77,0.00,-SN,,0.00,0.0,WeatherDisplay:10.37,2013-03-02 03:51:00,
2013-03-01 22:56:00,25.8,19.6,30.12,North,0,0.2,1.2,77,0.00,-SN,,0.00,0.0,WeatherDisplay:10.37,2013-03-02 03:56:00,
2013-03-01 23:01:00,25.8,19.6,30.12,NE,41,3.2,8.1,77,0.00,-SN,,0.00,0.0,WeatherDisplay:10.37,2013-03-02 04:01:00,
2013-03-01 23:06:00,25.7,18.9,30.12,NNW,335,0.1,1.2,75,0.00,-SN,,0.00,0.0,WeatherDisplay:10.37,2013-03-02 04:06:00,
2013-03-01 23:11:00,25.7,18.9,30.12,NNW,328,4.3,4.6,75,0.00,-SN,,0.00,0.0,WeatherDisplay:10.37,2013-03-02 04:11:00,
2013-03-01 23:16:00,25.7,18.9,30.11,North,349,1.8,3.5,75,0.00,-SN,,0.00,0.0,WeatherDisplay:10.37,2013-03-02 04:16:00,
2013-03-01 23:21:00,25.7,18.9,30.11,WNW,298,5.2,5.2,75,0.00,-SN,,0.00,0.0,WeatherDisplay:10.37,2013-03-02 04:21:00,
2013-03-01 23:26:00,25.7,18.9,30.11,WNW,302,3.2,4.6,75,0.00,-SN,,0.00,0.0,WeatherDisplay:10.37,2013-03-02 04:26:00,
2013-03-01 23:31:00,25.6,19.1,30.11,NW,322,5.0,7.5,76,0.00,-SN,,0.00,0.0,WeatherDisplay:10.37,2013-03-02 04:31:00,
2013-03-01 23:36:00,25.6,19.4,30.11,NW,322,5.2,8.1,77,0.00,-SN,,0.00,0.0,WeatherDisplay:10.37,2013-03-02 04:36:00,
2013-03-01 23:41:00,25.6,19.4,30.11,NW,311,0.8,1.2,77,0.00,-SN,,0.00,0.0,WeatherDisplay:10.37,2013-03-02 04:41:00,
2013-03-01 23:46:00,25.6,19.4,30.10,NW,311,1.2,4.6,77,0.00,-SN,,0.00,0.0,WeatherDisplay:10.37,2013-03-02 04:46:00,
2013-03-01 23:51:00,25.6,19.7,30.10,NW,316,0.0,0.0,78,0.00,-SN,,0.00,0.0,WeatherDisplay:10.37,2013-03-02 04:51:00,
2013-03-01 23:56:00,25.6,19.7,30.10,NW,319,3.6,4.6,78,0.00,-SN,,0.00,0.0,WeatherDisplay:10.37,2013-03-02 04:56:00,